Location: Chiroubles
(46.1812°N, 4.6660°E)
Time: 15:38:32
(UTC+00:00)

Transit 4A - Pass Details

Date: 07 December 2020
Orbit: 864 x 980 km, 66.8° (Epoch: 26 January)

Event Time Altitude Azimuth Distance (km) Brightness Sun altitude
Rises 14:31:43 0° 325° (NW) 3,679 10.9 10.1°
Reaches altitude 10° 14:34:18 10° 324° (NW) 2,719 10.3 9.8°
Maximum altitude 14:40:39 76° 241° (WSW) 984 8.5 9.1°
Drops below altitude 10° 14:46:48 10° 156° (SSE) 2,633 10.6 8.4°
Sets 14:49:16 0° 155° (SSE) 3,555 11.2 8.1°
